map of XAP home
Great Circle Mapper logo
XAP - Airport
Location
City:  Chapecó, Santa Catarina, Brazil
ICAO / IATA:SBCH / XAP

Details
Type:Airport (Aerodrome, Airfield)
Latitude:27°08'03"S (-27.134218)
Longitude:52°39'24"W (-52.656552)
Datum:WGS 1984
Elevation:2146 ft (654 m)
Runways:1
Longest:8120 × 145 ft (2475 × 44 m), paved

Time
Time Zone:UTC-3 (DST-2)
Local Time:

Weather
METAR:SBCH 010000Z 14008KT 9999 FEW025 FEW030TCU BKN090 25/20 Q1014

Related Locations
Nearby:
Farthest:RODE: 12398 mi / 19952 km
Ie Shima Aux AB, Ie-Shima Island, JP

Find:

   beyond  
but within

Other Information
Maps:
NOTAMs:
Links:
Sources:

  
flag of Brazil
flag of Santa Catarina
  

Sectional Chart

Flight Planning
at skyvector.com

Satellite Image

Google Maps Satellite View

 

Copyright © 2004-2014 Karl L. Swartz. All rights reserved.
The Great Circle Mapper name and logo are trademarks of the Great Circle Mapper.
All other trademarks mentioned herein belong to their respective owners.
Please see credits for attibutions and further copyright information.

  Follow gcmap on Facebook Follow gcmap on Twitter

hCard Microformat

Geo Microformat